Location: Unspecified
(0.0000°N, 0.0000°E)
Time: 10:05:20
(UTC+00:00)

STARLINK-1031 - Pass Details

Date: 12 December 2019
Orbit: 549 x 550 km, 53.0° (Epoch: 12 August)

Event Time Altitude Azimuth Distance (km) Brightness Sun altitude
Rises 18:34:41 0° 222° (SW) 2,718 8.5 -9.4°
Reaches altitude 10° 18:36:58 10° 227° (SW) 1,822 7.6 -9.9°
Maximum altitude 18:41:00 51° 304° (WNW) 689 4.3 -10.9°
Drops below altitude 10° 18:45:00 10° 21° (NNE) 1,811 5.8 -11.8°
Enters shadow 18:45:21 - 22° (NNE) 1,943 6.0 -11.9°
